Location: Unspecified
(52.4292°N, 19.3359°E)
Time: 00:51:22
(UTC+02:00)

Altair - Pass Details

Date: 24 May 2024
Orbit: 1502 x 1682 km, 47.2° (Epoch: 20 June)

Event Time Altitude Azimuth Distance (km) Brightness Sun altitude
Rises 17:37:04 0° 287° (WNW) 4,935 11.4 25.9°
Reaches altitude 10° 17:41:19 10° 272° (W) 3,948 11.6 25.2°
Maximum altitude 17:47:58 20° 230° (SW) 3,195 10.1 24.2°
Drops below altitude 10° 17:54:34 10° 188° (S) 3,906 9.7 23.2°
Sets 17:58:48 0° 173° (S) 4,867 10.0 22.6°
